User: anonymous   Login
Location: Newark
(52.3735°N, 16.9806°E)
Time: 19:09:06
(UTC+00:00)
Language:

UNISAT 6 - Orbit

View from above orbital plane
View from above orbital plane
View from above satellite
View from above satellite

Ground track
Ground track

The orbit data is extracted from the following two-line orbital elements,

1 40012U 14033C   21340.88167013  .00000370  00000-0  61348-4 0  9998
2 40012  97.6627 174.1580 0059199  63.0933 297.6309 14.74457430401605
Epoch (UTC): 06 December 2021 21:09:36
Eccentricity: 0.0059199
inclination: 97.6627°
perigee height: 605 km
apogee height: 688 km
right ascension of ascending node: 174.1580°
argument of perigee: 63.0933°
revolutions per day: 14.74457430
mean anomaly at epoch: 297.6309°
orbit number at epoch: 40160

The dashed part of the orbit path shows where the satellite is in the earth's shadow,  

DLR